Regional Weather Roundup
Issued by NWS

Home | Current Version | Previous Version | Text Only | Print | Product List | Glossary Off
Versions: 1 2 3 4 5 6 7 8 9 10 11 12 13 14 15 16 17 18 19 20 21 22 23 24 25 26 27 28 29 30 31 32 33 34 35 36 37 38 39 40 41 42 43 44 45 46 47 48 49 50

000
ASUS43 KLOT 061608
RWRIL

ILLINOIS REGIONAL WEATHER ROUNDUP
NATIONAL WEATHER SERVICE CHICAGO/ROMEOVILLE IL
1100 AM CDT MON JUL 06 2015

NOTE: "FAIR" INDICATES FEW OR NO CLOUDS BELOW 12,000 FEET WITH NO
SIGNIFICANT WEATHER AND/OR OBSTRUCTIONS TO VISIBILITY.

* THESE STATIONS ARE NOT UNDER NWS QUALITY CONTROL. THEY ALSO MAY NOT
  REPORT WEATHER SUCH AS PRECIPITATION OR FOG.

ILZ001-002-007-009-015-016-024-061700-
NORTHWEST ILLINOIS

CITY           SKY/WX    TMP DP  RH WIND       PRES   REMARKS
MOLINE         PTSUNNY   79  71  76 W12       29.94R HX  82
STERLING*      PTSUNNY   79  73  83 SW6       29.94S HX  82
SAVANNA*       CLOUDY    71  69  93 S3        29.97R
$$

ILZ003-004-008-010-011-017-018-061700-
NORTH CENTRAL ILLINOIS

CITY           SKY/WX    TMP DP  RH WIND       PRES   REMARKS
ROCKFORD       CLOUDY    81  71  71 S16       29.95R HX  85
FREEPORT*      HVY RAIN  72  70  92 W13G20    29.99R
ROCHELLE*      PTSUNNY   79  72  78 S15       29.95S HX  82
DE KALB*       FAIR      77  70  79 S18G24    29.97S
PERU*          PTSUNNY   81  70  70 S14       29.97S HX  84
$$

ILZ005-006-012>014-019>023-061700-
NORTHEAST ILLINOIS

CITY           SKY/WX    TMP DP  RH WIND       PRES   REMARKS
CHICAGO-OHARE  PTSUNNY   80  68  66 S15       29.97S HX  83
CHICAGO-MIDWAY PTSUNNY   83  70  64 S14G23    29.97F HX  87
AURORA         FAIR      82  70  66 S14       29.97F HAZE    HX  86
LANSING*       FAIR      81  66  60 S15       30.00S HX  83
JOLIET*        FAIR      81  73  75 S12       29.99S HX  86
WAUKEGAN       FAIR      80  69  69 S15       29.94F HX  83
DUPAGE AIRPORT FAIR      81  70  69 S14       29.97R HX  84
KANKAKEE*      FAIR      81  70  70 S13G20    30.02S HX  84
WHEELING       FAIR      81  68  64 S14       29.97F HX  84
MORRIS*        FAIR      82  70  68 S15G21    29.97S HX  85
ROMEOVILLE*    PTSUNNY   81  69  67 S15       29.99S HX  84
NORTHERLY ISL    N/A     80  67  64 S14         N/A  HX  82
$$

LMZ740>746-061700-
SOUTHERN LAKE MICHIGAN

STATION/POSITION SKY/WX   TEMP    WIND        PRES    VSBY  WAVE
                          AIR SEA DIR/SP/G                  HT/PER
                          (F)     (DEG/KT/KT) (MB)    (MI)  (FT/S)
HARRISON CRIB              73     170/ 13/ 14   N/A
BURNHAM HARBOR             80     190/ 12/ 14   N/A
CALUMET HARBOR             78     180/ 10/ 14   N/A
BURNS HARBOR               77     210/ 13/ 18 1016.6S
MICHIGAN CITY              75     180/ 12/ 16   N/A
MICHIGAN CITY 6N           73 67  200/  8/ 10   N/A           1
ST. JOSEPH                 70 66  230/  6/  8   N/A           1
$$

ILZ025>027-034>036-040-047-049-050-058-095>099-061700-
WEST-CENTRAL ILLINOIS

CITY           SKY/WX    TMP DP  RH WIND       PRES   REMARKS
QUINCY         FAIR      80  73  79 S10       29.96S HX  84
GALESBURG*     PTSUNNY   78  72  82 S7        29.95S HX  80
MACOMB*        FAIR      78  73  82 S5        29.97S HX  81
JACKSONVILLE*  FAIR      84  75  74 S10       29.98S HX  92
PITTSFIELD*    FAIR      82  74  75 S9        29.99F HX  88
$$

ILZ028>032-037-038-041>044-048-051>054-059>061-061700-
CENTRAL ILLINOIS

CITY           SKY/WX    TMP DP  RH WIND       PRES   REMARKS
PONTIAC        FAIR      82  74  77 S10       30.00S HX  87
BLOOMINGTON    FAIR      82  74  77 S16       30.01F HX  88
DECATUR        FAIR      82  72  71 S13       30.02S HX  87
PEORIA         FAIR      83  72  69 S15       29.96F HX  88
LACON*         FAIR      82  73  72 SW10G16   29.95S HX  88
LINCOLN*       FAIR      83  73  70 S12G17    29.99S HX  89
SPRINGFIELD    FAIR      84  74  71 S9        29.99F HX  91
TAYLORVILLE    FAIR      81  73  78 S10       30.02S HX  85
$$

ILZ033-039-045-046-055>057-062-063-061700-
EAST-CENTRAL ILLINOIS

CITY           SKY/WX    TMP DP  RH WIND       PRES   REMARKS
CHAMPAIGN      FAIR      81  71  71 S13       30.03F HX  85
DANVILLE*      FAIR      79  71  74 SW14      30.02S HAZE    HX  82
RANTOUL*       FAIR      82  72  70 S10       30.03S HX  87
MATTOON        FAIR      81  72  74 S12G20    30.03F HX  85
PARIS*         FAIR      81  71  70 S8        30.05F HX  85
$$

ILZ079-100>102-061700-
SOUTHWEST ILLINOIS

CITY           SKY/WX    TMP DP  RH WIND       PRES   REMARKS
ALTON          PTSUNNY   82 N/A N/A S13       30.02S
BELLEVILLE     PTSUNNY   82  77  85 S10       30.02R HX  90
CAHOKIA*       FAIR      85  74  69 S8        30.02R HX  92
SPARTA*        CLOUDY    80  73  80 S10G17    30.05F HX  83
$$

ILZ064>066-069>071-074>076-080>082-084>086-088>090-092>094-061700-
SOUTH-CENTRAL ILLINOIS

CITY           SKY/WX    TMP DP  RH WIND       PRES   REMARKS
CARBONDALE     CLOUDY    78  72  81 S14       30.06F HX  80
CAIRO*         FAIR      79  73  80 S7        30.08F HX  83
EFFINGHAM*     FAIR      82  70  66 S6        30.05F HX  86
MARION         CLOUDY    81  75  83 S15       30.08R HX  86
MT. VERNON     CLOUDY    81  72  74 S13       30.06F HX  84
CENTRALIA*     CLOUDY    78  70  77 S10       30.05S HX  80
SALEM*         CLOUDY    80  72  77 S8        30.05S HX  84
$$

ILZ067-068-072-073-078-083-087-091-061700-
SOUTHEAST ILLINOIS

CITY           SKY/WX    TMP DP  RH WIND       PRES   REMARKS
LAWRENCEVILLE  FAIR      82  73  74 S6        30.06S HX  87
FLORA*         FAIR      81  73  75 SW10      30.05S HX  85
FAIRFIELD*     CLOUDY    79  73  81 S8        30.05S HX  83
HARRISBURG*    FAIR      80  73  79 S9        30.08S HX  85
ROBINSON*      FAIR      82  73  72 S9        30.06S HX  87
CARMI*         FAIR      81  68  64 S9        30.06S HX  84
$$

ABBREVIATIONS USED IN REMARKS
   TC - TEMPERATURE IN CELSIUS
  WCI - WIND CHILL INDEX
   HX - HEAT INDEX
  VSB - VISIBILITY
$$




USA.gov is the U.S. government's official web portal to all federal, state and local government web resources and services.